STARLINK-34389

Satellite information

Favourite Embed

Satellite Type and Status

PAYLOADIN ORBIT

Key statistics

Satellite STARLINK-34389 at a glance.

Uptime

183

Days in orbit

Revolutions

≈ 15.0

Per day

Orbit

LEO

Low Earth Orbit

Inclination

70.0

Latest

Satellite identification and parameters

Extended collection of information and parameters for STARLINK-34389.

Object identification

Identified? True

Debris? False

Object name: STARLINK-34389

International designator: 2025-126H

Object number (NORAD): 64351

Object ID (CCSDS): 64351

Country: UNITED STATES OF AMERICA (US)

Current information (Y/N): Y

RCS size: LARGE

Orbital parameters

Period: 96.112 minutes

Inclination: 70.0038 deg

SMA: 6950.418 km

Apoapsis: 574.028 km

Periapsis: 570.537 km

RAAN: 255.0838 deg

Eccentricy: 0.00025118

Argument of periapsis: 244.967 deg

Mean anomaly: 115.1229 deg

Mean motion: 14.98257323 rev/day

Mean motion (dot): -0.00059231 rev/day2

B* drag term: -0.0050078876 1/REarth

Two-line elements (TLE)

Creation date: Dec. 12, 2025, 10:14 a.m.

Reference frame: TEME

Reference center: EARTH

Epoch: Dec. 12, 2025, 4:13 a.m. UTC

TLE line 0: 0 STARLINK-34389

TLE line 1: 1 64351U 25126H 25346.17627299 -.00059231 00000-0 -50079-2 0 9993

TLE line 2: 2 64351 70.0038 255.0838 0002512 244.9670 115.1229 14.98257323 27578

Live tracking on map

Real-time ground track for satellite STARLINK-34389.

In-orbit conjunctions

There are no conjunctions computed for STARLINK-34389, at the moment. Check back to stay up to date, as we update our databases every day.

Go to all conjunctions

Associated space launch

A batch of 26 satellites for the Starlink mega-constellation - SpaceX's project for space-based Internet communication system.

STARLINK-34389 was lifted into orbit during the mission ‘Falcon 9 Block 5 | Starlink Group 15-6’, on board a Falcon 9 space rocket.

The launch took place on June 13, 2025, 1:54 a.m. from Space Launch Complex 4E.

For more information about the launch, click the button.

Launch to space Falcon 9 Block 5 | Starlink Group 15-6
Falcon 9 Block 5 | Starlink Group 15-6

Agency: SpaceX

Status: Launch Successful

Launch date: June 13, 2025, 1:54 a.m. UTC

Rocket: Falcon 9

Launch pad: Space Launch Complex 4E

Location: Vandenberg SFB, CA, USA

...

Latest news about this satellite

News about space launch
Live coverage: SpaceX to launch 23 Starlink satellites on Falcon 9 rocket from Vandenberg SFB

The Starlink 15-6 mission will add another 26 satellites into SpaceX’s low Earth orbit constellation. Teams are targeting liftoff from pad 4E at 6:54 p.m. PDT (9:54 p.m. EDT, 0154 UTC).

News about space launch
Launch Roundup: ULA to launch Kuiper’s second batch of satellites, SpaceX to launch Axiom crew to ISS

SpaceX will launch Axiom Space’s fourth private crewed mission to the International Space Station (ISS)… The post Launch Roundup: ULA to launch Kuiper’s second batch of satellites, SpaceX to launch Axiom crew to ISS appeared first on NASASpaceFlight.com.


Newsletter sign-up

Weekly statistics, charts and insights to help you stay on top of the space industry.